Helicity
42 60 -42 -43 -40 -31 -16 -22 -27 -19 1 22 30 22 11 9 6 8 10 7 4 -0 -0 2 6 13 14 24 46 53 44 38 51 37 15 7 28 27 14 20 33 29 38
-33 -77 -65 -43 -34 -27 -19 -29 -24 -16 3 19 22 23 14 12 11 12 9 2 -0 4 -7 -15 1 11 10 23 38 45 58 40 52 30 24 11 7 9 9 14 25 34 47
-80 -94 -74 -47 -34 -23 -29 -29 -26 -10 7 15 20 16 12 12 14 8 5 2 -2 -5 -11 -8 -2 6 11 23 31 33 37 39 41 36 21 20 19 13 5 3 8 14 29
-77 -104 -87 -45 -32 -28 -38 -27 -21 -5 7 14 10 8 12 12 9 8 5 9 14 17 21 -20 -4 4 7 23 25 31 53 26 35 31 18 15 21 18 4 7 12 21 21
-101 -87 -82 -52 -38 -37 -33 -25 -17 -3 2 5 3 7 10 13 5 4 13 18 22 23 21 4 -28 5 10 21 27 37 25 32 47 9 -39 -4 12 13 3 -0 4 6 11
-81 -77 -67 -54 -43 -38 -27 -20 -10 -5 -1 -1 5 14 15 9 10 17 22 23 21 20 14 14 20 19 16 22 34 36 28 8 23 -21 -29 -18 -2 -1 -8 3 -1 13 7
-74 -89 -73 -55 -45 -35 -23 -16 -10 -9 -6 2 8 14 15 15 17 24 24 22 19 13 10 12 15 20 22 15 24 33 26 30 25 9 -19 -21 -12 10 -4 13 21 15 14
-58 -85 -76 -53 -40 -30 -19 -16 -12 -12 -1 8 13 18 20 19 25 24 22 16 12 9 6 10 10 11 20 24 20 31 22 49 33 25 -6 -0 -7 11 13 18 25 9 13
-75 -79 -76 -67 -44 -26 -22 -17 -7 -6 9 13 15 19 23 20 24 31 25 18 14 10 10 11 3 1 10 28 42 28 28 54 44 10 11 11 7 11 20 23 27 13 21
-86 -79 -62 -51 -46 -42 -28 -4 -1 6 14 15 17 16 14 18 22 25 23 22 15 12 1 -1 -5 -5 11 27 42 42 35 44 27 23 23 10 1 11 16 14 22 16 26
-88 -76 -54 -39 -36 -37 -26 -13 2 10 14 17 16 21 19 7 15 19 25 20 18 13 11 4 -1 8 -20 -12 11 18 45 7 25 23 19 -15 -38 29 31 25 12 21 8
-60 -60 -48 -43 -29 -26 -17 -18 -19 -13 -11 -3 -1 2 -0 7 10 25 25 17 21 -1 -1 -0 -11 -7 25 12 3 2 29 9 -1 -2 -5 20 32 22 24 22 17 30 27
-46 -44 -37 -35 -25 -13 -10 -24 -25 -25 -16 -14 -10 -10 -7 -6 -1 11 6 3 1 3 -7 -10 -9 -5 6 22 27 23 32 11 -6 -24 -18 5 25 23 32 26 29 23 29
-36 -27 -32 -21 -13 -7 -21 -23 -25 -22 -25 -25 -28 -19 -14 -4 1 -1 2 -2 3 -5 -7 -6 11 18 22 19 22 22 23 9 10 -8 -8 10 21 9 19 34 27 28 20
-28 -27 -31 -18 -9 -14 -23 -31 -27 -27 -31 -40 -40 -30 -9 -3 -3 -2 -1 4 11 -0 12 1 12 13 -13 6 17 50 39 27 42 -0 -6 -1 10 18 -4 15 34 32 29
-23 -16 -25 -10 -14 -18 -22 -34 -30 -38 -47 -43 -47 -39 -15 -1 -2 5 10 11 12 15 13 28 5 5 -10 -5 20 23 30 24 23 10 -9 -6 -8 29 16 1 9 32 27
-11 -11 -6 -3 -13 -19 -18 -38 -48 -47 -46 -40 -50 -36 -5 13 13 11 17 21 25 24 31 22 28 40 21 28 43 48 31 13 -14 -0 -6 -3 -14 -21 -0 -6 -8 -3 8
-6 4 -2 -9 -13 -20 -32 -55 -46 -40 -29 -46 -40 -15 7 22 24 26 29 32 31 34 47 56 35 41 26 23 39 49 20 2 17 7 7 -1 -13 -25 -30 -11 -4 -0 1
31 3 -5 -8 -19 -12 -36 -51 -36 -28 -15 -34 -34 -14 7 24 43 34 39 33 43 43 49 61 59 58 44 25 30 39 35 -11 -10 -0 19 9 4 -11 -29 -25 -9 -6 -5
25 9 3 -3 -18 -20 -38 -51 -52 -43 -30 -32 -15 10 7 32 40 50 49 46 59 63 61 59 57 54 56 37 19 13 24 1 3 -7 -1 -2 13 4 -3 -11 -19 -21 -12
-6 -6 11 23 -1 -8 -13 -39 -48 -11 -26 -31 -20 -8 7 22 29 58 59 60 64 55 46 48 40 56 58 38 17 -4 -4 12 13 2 -7 2 -6 13 17 11 2 15 -3
25 29 29 50 49 42 27 -3 -4 12 -5 -9 -12 -10 6 14 29 59 67 59 50 39 31 30 60 64 50 27 24 2 1 -28 -18 -1 -5 -2 -25 -25 -1 14 18 28 28
29 46 55 73 88 88 67 26 30 33 8 -18 -28 -20 -1 22 39 57 53 35 26 42 29 52 90 92 44 23 34 34 30 34 28 -5 -3 11 -1 -12 -11 -10 -6 2 9
55 49 63 64 87 89 112 93 74 48 72 57 82 56 24 30 43 35 23 11 16 30 29 48 74 71 52 36 31 30 50 65 91 60 40 50 39 16 -7 -1 3 7 1
63 78 105 126 127 135 162 173 139 88 56 39 64 80 44 27 31 4 -2 4 25 39 21 34 57 77 64 49 65 64 68 80 91 91 68 74 63 51 38 31 17 12 9
87 62 103 107 124 179 192 184 186 152 111 74 46 55 51 8 -2 -38 -39 -1 28 20 14 26 38 49 52 27 30 48 61 74 91 108 69 54 73 69 65 65 54 37 30
Wind_Speed
68 64 63 65 57 55 57 56 56 59 59 59 54 54 54 54 52 52 52 53 50 25 25 37 50 51 50 51 52 52 51 49 48 48 48 43 35 18 15 18 19 11 10
72 64 66 61 52 52 53 55 59 59 59 56 54 54 52 52 53 53 53 52 52 53 41 39 50 50 48 48 48 48 48 47 48 50 51 51 50 30 10 15 13 13 13
52 58 63 58 51 51 55 59 59 60 57 56 53 54 54 54 53 53 53 52 52 49 43 48 49 48 46 46 46 47 47 47 49 48 47 49 51 52 12 13 8 8 15
56 62 62 55 50 53 57 56 60 57 56 55 56 57 55 53 52 52 51 49 45 42 33 31 48 46 45 42 42 43 44 44 48 46 38 46 51 49 30 7 8 12 19
57 66 54 54 50 54 58 60 57 55 56 57 57 56 54 52 51 49 47 45 40 33 23 11 31 32 45 41 41 40 38 41 44 42 15 27 49 43 34 18 13 12 14
56 53 56 54 53 58 59 57 54 56 56 57 57 54 52 50 50 47 44 40 37 31 24 25 40 44 45 43 41 39 40 37 37 33 24 18 11 29 26 27 21 22 20
51 55 59 57 58 58 59 56 56 56 56 56 54 52 50 49 47 45 42 38 32 30 33 37 41 42 41 42 41 39 41 38 37 26 19 13 27 45 32 26 24 25 21
51 57 60 59 59 60 59 57 57 57 56 53 51 49 47 45 42 38 35 32 30 30 36 39 36 34 38 38 38 41 41 41 37 26 16 24 39 41 39 32 29 25 24
49 55 58 62 63 61 61 59 58 56 53 51 48 46 44 41 36 33 30 28 29 31 35 36 36 32 29 30 34 37 38 39 39 19 26 30 45 42 41 40 36 31 28
50 54 60 64 65 63 62 59 57 55 52 49 46 42 39 37 34 30 30 29 31 32 31 32 34 30 27 29 29 33 34 39 40 30 26 38 43 37 37 39 39 36 33
54 61 62 65 66 64 61 59 57 54 51 48 45 41 39 35 32 31 30 30 32 35 33 33 33 35 30 26 26 27 35 34 37 38 30 13 14 31 30 34 32 30 29
59 65 64 65 66 64 61 59 57 54 51 48 45 41 38 35 32 30 32 30 31 33 28 28 26 30 37 29 26 29 34 35 34 32 34 39 41 33 32 33 31 28 29
60 65 68 66 66 65 63 60 57 54 51 49 45 42 38 35 33 30 32 30 31 29 27 28 24 26 28 34 36 32 33 35 34 32 34 37 38 35 38 38 36 33 31
62 67 68 69 67 66 63 60 58 56 53 51 47 44 40 38 34 33 32 31 30 30 30 28 24 27 31 33 36 37 35 35 33 32 34 36 36 38 38 38 39 36 35
66 69 69 69 69 67 64 61 59 57 55 52 48 45 41 39 36 33 33 30 30 29 27 26 22 21 23 25 26 29 29 28 28 31 33 34 35 36 36 37 36 36 34
68 67 69 71 70 67 64 61 60 59 56 53 50 46 43 40 36 34 32 30 29 27 26 25 23 21 21 20 22 26 25 27 27 29 32 33 32 32 35 35 35 34 32
69 66 69 72 71 68 66 63 60 58 56 53 51 48 44 41 38 34 32 28 25 23 24 24 23 26 26 27 34 32 32 29 31 32 32 31 31 31 32 31 30 30 30
68 70 69 71 71 68 67 65 61 57 55 53 51 47 45 41 38 34 30 26 24 23 23 24 26 27 25 30 35 36 32 32 33 31 32 30 30 30 31 31 29 27 27
70 71 70 71 69 67 68 67 64 60 58 55 52 49 47 42 37 35 29 23 22 23 25 25 25 28 29 32 35 37 30 31 26 29 31 29 29 29 27 28 28 26 24
70 71 69 68 67 65 64 66 64 62 59 56 55 50 48 43 38 33 26 21 22 25 26 27 27 29 30 29 32 32 30 30 26 28 30 31 30 29 28 26 24 24 22
67 70 70 67 69 63 63 63 64 63 60 55 52 49 45 39 35 30 24 20 23 24 25 27 30 29 30 30 31 31 31 31 26 28 29 31 31 29 29 30 26 24 23
72 70 69 67 63 62 56 58 61 56 59 55 51 47 41 35 30 27 24 20 22 23 25 26 28 30 30 30 32 30 29 29 27 29 28 29 31 31 31 33 31 28 27
70 68 67 66 61 59 56 43 30 54 60 57 54 48 42 35 30 27 27 23 22 23 24 25 28 31 32 34 33 33 31 28 27 27 27 27 29 30 31 33 34 32 30
72 69 66 60 56 55 51 45 52 53 49 52 49 44 38 31 29 27 28 26 22 24 25 25 28 32 35 34 34 32 31 32 28 25 23 22 23 25 28 29 30 29 28
72 67 66 61 58 53 51 49 50 51 49 46 43 40 36 29 26 28 30 27 26 27 25 26 27 30 33 34 35 34 32 30 29 26 22 18 17 17 19 20 23 24 24
68 67 61 62 65 55 51 52 49 50 41 38 37 34 31 31 25 30 29 28 28 26 25 27 25 28 30 31 30 30 30 29 26 26 23 19 15 17 16 16 15 14 15
Wind_Direction
155 161 116 112 103 97 98 97 94 94 93 93 86 84 83 79 77 73 71 72 60 16 15 41 83 100 99 95 89 91 93 93 98 99 87 75 60 21 236 228 232 267 341
133 122 119 110 99 95 93 95 97 96 96 90 86 84 80 81 83 82 80 73 74 77 44 42 79 95 99 99 96 94 97 102 102 111 100 102 99 57 247 231 246 256 9
112 114 118 109 98 96 96 98 99 100 94 90 85 87 87 90 89 88 85 86 81 93 57 65 81 96 105 108 106 96 79 100 97 116 122 120 120 113 237 230 277 344 15
114 118 116 106 99 100 102 99 103 98 95 92 95 97 100 98 104 101 97 110 122 128 141 35 98 96 90 110 109 92 96 69 78 81 149 138 115 95 56 306 338 4 30
115 122 111 108 101 103 105 106 102 97 100 103 100 107 109 111 112 116 121 124 132 147 170 234 11 102 91 113 109 113 79 87 78 64 322 35 114 77 60 31 14 6 358
115 114 115 112 108 110 110 106 102 103 105 108 113 114 114 120 119 122 129 135 139 151 168 166 125 107 95 99 101 95 85 60 62 33 12 8 258 52 45 50 31 35 25
114 118 122 119 118 116 116 111 109 109 113 125 125 117 120 124 123 127 129 139 153 156 146 135 122 114 114 100 89 93 70 70 67 14 345 301 50 99 61 46 37 37 24
117 124 128 127 126 126 124 120 120 125 135 136 132 129 132 137 138 142 147 153 157 158 140 130 133 137 118 108 104 91 79 71 58 17 284 227 88 94 90 62 52 44 38
118 124 130 136 139 138 137 137 142 144 145 146 143 142 144 148 153 154 160 166 163 153 144 140 132 136 139 135 124 109 103 97 106 257 218 203 151 106 100 97 79 67 53
125 130 137 144 152 152 154 152 153 154 152 151 153 156 161 159 161 167 163 164 162 157 154 148 135 137 142 133 131 119 115 110 129 189 225 140 123 98 96 103 98 87 73
137 146 148 153 160 159 162 162 162 163 163 163 160 164 162 163 169 168 168 165 165 153 148 145 131 114 126 137 139 136 115 130 135 140 215 50 335 86 85 95 88 77 74
147 156 156 158 163 165 170 171 170 171 172 173 170 174 169 168 175 167 167 168 168 162 167 163 154 122 93 112 131 120 118 116 127 150 161 149 147 110 97 103 95 86 88
151 159 165 164 168 170 175 174 174 174 179 178 177 188 179 182 185 180 167 171 163 169 170 159 165 144 126 110 96 107 102 115 122 129 140 141 142 122 131 129 122 112 105
157 164 167 171 173 174 177 177 178 178 181 185 179 183 180 176 178 175 170 164 163 160 152 150 156 137 111 105 92 90 101 108 117 126 126 134 144 148 138 135 141 130 131
164 168 170 172 177 176 176 180 183 182 185 185 184 183 176 172 173 172 166 167 159 165 158 161 152 146 154 138 121 116 110 121 121 120 142 141 144 153 144 144 139 138 139
169 168 172 176 178 179 177 178 183 186 187 187 185 180 174 173 172 171 169 166 162 160 151 141 138 135 159 175 126 121 124 127 124 123 128 134 141 149 154 146 149 143 139
172 169 173 179 182 181 183 183 182 184 188 187 186 184 179 176 174 172 168 159 151 144 135 116 103 82 95 87 31 60 60 105 111 114 124 129 132 130 127 126 129 138 146
172 175 176 182 182 182 186 188 187 184 187 189 188 183 181 179 176 173 166 154 127 108 101 89 73 76 90 61 4 7 10 27 84 109 127 133 134 125 116 116 114 117 130
174 177 179 180 180 180 187 193 194 192 191 192 193 191 188 183 174 170 161 137 109 88 92 89 87 73 73 43 11 353 356 2 27 59 100 112 133 117 111 118 109 100 100
175 177 175 176 179 178 183 191 199 199 197 201 201 195 195 186 176 161 145 122 98 97 98 89 88 72 69 57 35 16 359 346 10 10 351 4 77 94 86 83 86 77 97
173 176 178 176 181 176 179 182 192 195 197 200 191 188 180 171 161 155 143 114 113 106 105 89 71 70 56 56 52 40 6 356 358 353 4 3 6 28 31 24 37 46 54
178 178 179 179 176 177 174 178 189 185 194 193 188 182 175 166 158 155 150 129 121 108 97 93 77 56 54 75 65 65 61 22 11 339 355 357 8 3 9 7 12 22 23
182 181 181 181 179 178 177 168 193 230 218 193 194 188 181 172 164 158 154 136 120 114 105 104 80 68 77 89 97 75 60 57 48 23 16 11 13 16 13 10 16 19 22
187 185 185 183 180 180 177 175 179 182 182 188 187 183 179 170 167 162 159 149 132 124 116 117 86 82 86 98 100 109 94 70 68 62 60 52 37 30 22 24 29 33 31
187 186 187 185 185 184 183 182 182 185 186 185 182 182 181 173 166 162 161 155 147 142 131 128 103 97 98 108 113 109 112 102 82 65 68 82 74 70 54 46 31 24 20
189 189 187 188 191 188 188 188 187 187 183 181 180 179 178 176 169 170 165 162 155 144 136 135 115 108 109 110 110 107 102 99 105 91 80 92 108 41 30 35 43 44 31